Location: Los Ranchitos
(37.9930°N, 122.5425°W)
Time: 07:28:08
(UTC+00:00)

Cosmos 1464 Rocket - Pass Details

Date: 21 September 2020
Orbit: 953 x 1000 km, 82.9° (Epoch: 28 October)

Event Time Altitude Azimuth Distance (km) Brightness Sun altitude
Rises 03:29:16 0° 188° (S) 3,613 6.9 -16.4°
Reaches altitude 10° 03:31:45 10° 190° (S) 2,671 6.2 -16.9°
Maximum altitude 03:37:51 79° 277° (W) 977 4.1 -18.1°
Drops below altitude 10° 03:44:02 10° 4° (N) 2,703 6.5 -19.3°
Sets 03:46:34 0° 6° (N) 3,658 7.2 -19.7°
